User: anonymous   Login
Location: Christchurch
(43.5330°S, 172.6330°E)
Time: 12:25:33
(UTC+13:00)
Language:

H-2A R/B - Orbit

View from above orbital plane
View from above orbital plane
View from above satellite
View from above satellite

Ground track
Ground track

The orbit data is extracted from the following two-line orbital elements,

1 26899U 01038B   19077.39717692  .00001586  00000-0  29629-3 0  9995
2 26899  27.8330 164.7518 7121999 253.1828  23.3186  2.49133056152428
Epoch (UTC): 18 March 2019 09:31:56
Eccentricity: 0.7121999
inclination: 27.8330°
perigee height: 237 km
apogee height: 32977 km
right ascension of ascending node: 164.7518°
argument of perigee: 253.1828°
revolutions per day: 2.49133056
mean anomaly at epoch: 23.3186°
orbit number at epoch: 15242

The dashed part of the orbit path shows where the satellite is in the earth's shadow,  

DLR